Weather in Pavelets-Selo

Russia / Ryazan Oblast     53°50′19″N   39°16′10″E
temp.,
°C
wind,
m/s
gust,
m/s
humid.,
%
clouds,
%
prec.,
mm/h
press.,
hPa
HPBL,
m
4 march, thu
thu400:00−2w61292100 0.1 1012707
03:00−2wsw71590100 0.1 1010525
06:00−1wsw81492100 0.0 1007532
09:00−1wsw81689100 0.0 1006485
12:000wsw81484100 0.0 1004794
15:000wsw71189100 0.0 1002960
18:00−1w61191100 0.1 1001584
21:00−2w51195100 0.2 1001473
5 march, fri
fri500:00−2w51095100 0.4 1001452
03:00−5n3597100 0.6 1003132
06:00−6nw3796100 0.1 1005146
09:00−8nw349668 0.1 1008103
12:00−4wnw359112 0.0 1009342
15:00−3wnw35889 0.0 1011547
18:00−7w349237 0.0 101228
21:00−9w339136 0.0 101522
6 march, sat
sat600:00−10wnw229050 0.0 101621
03:00−12w119230 0.0 101621
06:00−13w01920 0.0 101621
09:00−10s119219 0.0 101621
12:00−7s1289100 0.0 1015243
15:00−5sw1290100 0.1 1015301
18:00−9w119786 0.2 101521
21:00−8nw349685 0.4 101797
7 march, sun
sun700:00−13wnw349267 0.1 101748
03:00−14wsw479033 0.1 101695
06:00−12sw6129028 0.0 1014259
09:00−8sw9178364 0.0 1010595
12:00−5sw111880100 0.0 10051080
15:00−4wsw121992100 1.1 10011248
18:00−3w101695100 1.5 10001052
21:00−8wnw4676100 2.0 1003105
8 march, mon
mon800:00−10sw59850 0.0 1003145
03:00−10sw612930 0.0 1001216
06:00−8sw6138824 0.0 999344
09:00−6w9139341 0.4 9991136
12:00−8wnw101481100 0.1 10021348
15:00−7wnw91478100 0.3 10061372
18:00−9w5128394 0.0 1009332
21:00−13w458956 0.0 101283